STARLINK-33752, 63580

Orbit data source: Space-Track

STARLINK-33752, 63580 is a payload satellite owned by SpaceX/Seattle (US) in LEO that was launched on Mon, 14 Apr 2025 UTC via an FALCON 9 launch vehicle from the Air Force Eastern Test Range (AFETR). Payload-class satellites include a variety of spacecraft equipped with specific instruments for various scientific and technological missions. These include communications satellites like Starlink; space stations such as the ISS; scientific satellites like the Hubble; Earth observation satellites from companies like Planet Labs, Umbra, and HawkEye 360; GPS; miniature CubeSats for education and research; and military/defense satellites.

Loading next visibility...
Identifier
63580, 2025-076M
Orbit
LEO
Country
Flag of USUS
Related business
Manufacturer
SpaceX/Seattle
Mission
Operational Commercial Communications
Bus & Motor
STARLINK V2MO, Unknown motor
Mass
575 kg wet, ~530 kg dry
Launch date (UTC)
2025-04-14 (5 months ago)
Launch vehicle
FALCON 9
Launch site
Air Force Eastern Test Range (AFETR)
Object type
Payload
Rocket body
Debris
Shape & HBR
Box + 1 Pan, 14.5 m
Radar Cross Section
41.120 m², Large (>1 m²)

Expand to show TLE details & history
Last TLE update: 18 hours ago

TLE from 18 hours ago
0 STARLINK-33752
1 63580U 25076M   25260.24930308  .00018019  00000-0  66263-3 0  9991
2 63580  42.9984 221.3048 0000923 272.2486  87.8260 15.27584413 25306
Epoch: 2025-09-17T05:58Z
TLE epoch observation values (Epoch: 2025-09-17T05:58:59.786Z)
Latitude
Longitude
135.12773°
Altitude
482.787 km
Speed
7.626 km/s
True Right ascension
14h 45m 13s
True Declination
0° 00' 00"
Sunlit
Object was in daylight at epoch
Visualization orbit readout
Latitude
Unknown
Longitude
Unknown
Altitude
Unknown
Speed
Unknown
Apparent Right ascension
Unknown
Apparent Declination
Unknown
Sunlit
N/A
Visualization observer readout
Local Sidereal Time
16:51:54
Azimuth
Unknown
Elevation
Unknown
Doppler factor
Unknown
Orbital elements
Apogee altitude
485.615 km
Perigee altitude
484.348 km
Semi-major axis
6,863.118 km
Eccentricity
0.00009
Inclination
42.9984°
RAAN
221.3048°
Arg. of periapsis
272.2486°
True anomaly
87.83657°
Mean anomaly
87.826°
Eccentric anomaly
87.83128°
Mean motion
3.81734 °/min
Orbital period
94.31 mins
BSTAR
0.00066263
Loading maneuver chart data...
Computing Atmospheric mass density...
Loading historical data...
Loading historical data...
Loading historical data...
Loading historical data...
Loading historical data...
Loading historical data...
Loading historical data...

Documentation

Showing up to 5 results
|